#timestamp,LO_Frequency,Hit,StdDev 
1546509615.3,286047001.0,N
1546509635.2,286046999.8,N
1546509655.9,286046998.4,N
1546509675.7,286046998.8,N
1546509695.6,286046998.6,N
1546509715.4,286046998.3,N
1546509735.2,286046997.0,N
1546509755.1,286046998.2,N
1546509756.0,286046998.2,N
1546509775.8,286047002.3,N
1546509795.7,286047002.4,N
1546509815.5,286047001.3,N
1546509835.3,286047001.9,N
1546509855.2,286047004.4,N
1546509875.0,286047004.2,N
1546509875.9,286047004.2,N
1546509895.7,286047001.7,N
1546509915.6,286047003.3,N
1546509935.4,286047002.0,N
1546509955.3,286047004.8,N
1546509975.1,286047006.1,N
1546509976.0,286047006.1,N
1546509995.8,286047005.3,N
1546510015.7,286047003.3,N
1546510035.5,286047001.7,N
1546510055.3,286047005.0,N
1546510075.2,286047003.9,N
1546510095.0,286047001.9,N
1546510095.9,286047001.9,N
1546510115.8,286047002.5,N
1546510135.6,286047000.7,N
1546510155.4,286047001.8,N
1546510175.3,286046999.1,N
1546510195.1,286047000.6,N
1546510215.8,286047001.8,N
1546510235.7,286047001.9,N
1546510255.5,286046999.7,N
1546510275.4,286047001.1,N
1546510295.2,286047000.8,N
1546510315.0,286047000.7,N
1546510315.9,286047000.7,N
1546510335.8,286047000.8,N
1546510355.6,286047001.9,N
1546510375.4,286047005.1,N
1546510395.3,286047003.6,N
1546510415.1,286047002.0,N
1546510435.9,286047001.9,N
1546510455.7,286047004.3,N
1546510475.5,286047000.3,N
1546510495.4,286046999.4,N
1546510515.2,286046998.8,N
1546510535.0,286047000.4,N
1546510535.9,286047000.4,N
1546510555.8,286047000.7,N
1546510575.6,286047001.1,N
1546510595.5,286047000.2,N
1546510615.3,286047001.7,N
1546510635.1,286047000.9,N
1546510655.9,286047000.9,N
1546510675.7,286046998.9,N
1546510695.5,286046998.3,N
1546510715.4,286046996.6,N
1546510735.2,286046997.1,N
1546510755.1,286046996.6,N
1546510756.0,286046996.6,N
1546510775.8,286046996.7,N
1546510795.6,286046997.3,N
1546510815.5,286047000.0,N
1546510835.3,286046998.2,N
1546510855.2,286046998.8,N
1546510875.9,286046998.3,N
1546510895.7,286046998.7,N
1546510915.6,286047000.8,N
1546510935.4,286046999.4,N
1546510955.2,286047000.3,N
1546510975.1,286047001.1,N
1546510976.0,286047001.1,N
1546510995.8,286047002.6,N
1546511015.7,286046998.8,N
1546511035.5,286046998.6,N
1546511055.3,286046999.6,N
1546511075.2,286046997.2,N
1546511095.0,286046996.9,N
1546511095.9,286046996.9,N
1546511115.8,286046996.9,N
1546511135.6,286046999.2,N
1546511155.4,286046999.1,N
1546511175.3,286046999.4,N
1546511195.1,286046998.7,N
1546511215.9,286047002.0,N
1546511235.7,286046999.4,N
1546511255.5,286046997.5,N
1546511275.4,286046997.6,N
1546511295.2,286046997.2,N
1546511315.0,286046997.4,N
1546511346.0,286046996.7,E
1546511355.9,286046996.7,N
1546511375.7,286047000.1,P
1546511395.6,286047000.2,N
1546511415.4,286047002.7,N
1546511435.2,286046998.5,N
1546511455.1,286047000.7,N
1546511456.0,286047000.7,N
1546511475.8,286047000.7,N
1546511495.7,286047000.7,N
1546511515.5,286046999.9,N
1546511535.3,286047000.1,N
1546511555.2,286047000.7,N
1546511575.0,286047000.1,N
1546511575.9,286047000.1,N
1546511595.8,286047000.4,N
1546511615.6,286047000.7,N
1546511635.4,286047000.2,N
1546511655.3,286046999.9,N
1546511675.1,286046999.9,N
1546511695.8,286047002.4,N
1546511715.7,286047002.2,N
1546511735.5,286047003.6,N
1546511755.4,286047004.3,Y
1546511775.2,286047002.5,P
1546511795.0,286047000.0,N
1546511795.9,286047000.0,N
1546511815.8,286047000.9,N
1546511835.6,286046999.9,N
1546511855.5,286047000.8,N
1546511875.3,286047001.1,N
1546511895.1,286046996.8,Y
1546511915.9,286046998.8,P
1546511935.7,286046997.2,N
1546511955.5,286046995.7,P
1546511975.4,286046997.6,N
1546511995.2,286046996.8,N
1546512015.1,286046997.3,N
1546512016.0,286046997.3,N
1546512035.8,286046996.6,N
1546512055.6,286046995.2,Y
1546512075.5,286046998.3,P
1546512095.3,286046998.6,P
1546512115.1,286046999.3,N
1546512135.9,286046997.1,Y
1546512155.7,286046998.8,P
1546512175.6,286047001.6,P
1546512195.4,286047001.8,N
1546512215.2,286047000.2,N
1546512235.1,286047000.3,N
1546512236.0,286047000.3,N
1546512255.8,286046998.6,N
1546512275.6,286046999.2,N
1546512295.5,286046996.9,N
1546512315.3,286047000.9,N
1546512335.2,286046999.6,N
1546512355.9,286046996.8,N
1546512375.7,286046996.9,N
1546512395.6,286046996.6,N
1546512415.4,286046999.1,N
1546512435.2,286046998.6,N
1546512455.1,286046998.8,N
1546512456.0,286046998.8,N
1546512475.8,286047001.0,N
1546512495.7,286046998.3,N
1546512515.5,286047000.9,N
1546512535.3,286046999.9,N
1546512555.2,286046998.9,N
1546512575.0,286046998.9,N
1546512575.9,286046998.9,N
1546512595.7,286046998.8,N
1546512615.6,286047000.9,N
1546512635.4,286046998.4,N
1546512655.3,286046999.6,N
1546512675.1,286046997.4,N
1546512676.0,286046997.4,N
1546512695.8,286046997.4,N
1546512715.7,286046995.0,Y
1546512735.5,286046999.5,P
1546512755.4,286046996.5,P
1546512775.2,286046999.1,N
1546512795.0,286046997.0,N
1546512795.9,286046997.0,N
1546512815.8,286046997.3,N
1546512835.6,286046997.1,N
1546512855.4,286046995.5,Y
1546512875.3,286047000.0,P
1546512895.1,286047001.2,N
1546512915.9,286047000.4,N
1546512935.7,286047002.8,N
1546512955.5,286047001.5,N
1546512975.4,286047004.2,N
1546512995.2,286047000.1,N
1546513015.0,286046999.2,N
1546513015.9,286046999.2,N
1546513035.8,286046999.0,N
1546513055.6,286046998.4,N
1546513075.5,286047000.6,N
1546513095.3,286046998.6,N
1546513115.1,286046996.7,N
1546513135.9,286046997.2,N
1546513155.7,286046997.5,N
1546513175.5,286046998.1,N
1546513195.4,286046998.5,N
